{"data":{"norad_id":61529,"intl_designator":"2024-183W","name":"STARLINK-32351","alt_names":[],"object_type":"PAYLOAD","status":"ACTIVE","operator":null,"country":"US","launch_date":"2024-10-15","launch_site_code":"AFETR","launch_vehicle":null,"mission":null,"orbit_class":"UNKNOWN","rcs_meters":null,"size_class":null,"mass_kg":null,"dimensions":null,"purposes":["comms"],"wikipedia_slug":null,"has_3d_model":false,"image_url":null,"decayed_at":null,"tle_current":{"epoch":"2026-09-21T09:17:33.978912Z","epoch_age_seconds":115480,"freshness":"FRESH","line1":"1 61529U 24183W   26264.38719883  .00000724  00000+0  32571-4 0  9992","line2":"2 61529  53.1604 309.2784 0001358  85.4080 274.7078 15.34393568109674","mean_motion":15.34393568,"eccentricity":0.0001358,"inclination_deg":53.1604,"raan_deg":309.2784,"arg_perigee_deg":85.408,"mean_anomaly_deg":274.7078,"bstar":3.2571e-5,"rev_number":10967,"period_min":93.84815148026,"perigee_km":461.79336883262,"apogee_km":463.65134623412,"semimajor_km":6840.8593575334,"source":"CELESTRAK","updated_at":"2026-09-22T09:00:49.362283Z"}}}